When you browse on this site, cookies collect data to enhance your experience and personalize the content and advertising you see.
Visit our Privacy Policy to learn more. By continuing to use the site, you agree to this use of cookies and data.
  • în România
  • Lista ţărilor
  • Pe 7 zile
  • Temperatura apei
  • Meteo pe hartă
  • Widget-uri
  • user-avatar
    Intrare

    Meteo pe oră la Wiktoria

    Astăzi, 20 Ianuarie, Luni

    Timp Temperatura Precipitaţii Vânt Presiune Umiditate
    00:00 +19°C° 0 mm 3 m/s 740 mmHg 85%
    01:00 +18°C° 0 mm 2 m/s 740 mmHg 84%
    02:00 +18°C° 0.1 mm 2 m/s 740 mmHg 85%
    03:00 +18°C° 0.1 mm 2 m/s 740 mmHg 86%
    04:00 +19°C° 0 mm 1 m/s 740 mmHg 86%
    05:00 +19°C° 0.8 mm 1 m/s 740 mmHg 84%
    06:00 +18°C° 0.8 mm 2 m/s 740 mmHg 83%
    07:00 +19°C° 0.8 mm 2 m/s 740 mmHg 81%
    08:00 +19°C° 1.2 mm 2 m/s 740 mmHg 79%
    09:00 +21°C° 1.2 mm 1 m/s 740 mmHg 77%
    10:00 +20°C° 0 mm 2 m/s 741 mmHg 74%
    11:00 +21°C° 0.2 mm 2 m/s 741 mmHg 68%
    12:00 +24°C° 0.2 mm 2 m/s 740 mmHg 63%
    13:00 +25°C° 0.2 mm 2 m/s 740 mmHg 57%
    14:00 +25°C° 1.3 mm 2 m/s 740 mmHg 61%
    15:00 +24°C° 1.3 mm 3 m/s 739 mmHg 64%
    16:00 +22°C° 0 mm 3 m/s 740 mmHg 65%
    17:00 +21°C° 1.4 mm 4 m/s 740 mmHg 72%
    18:00 +20°C° 1.4 mm 4 m/s 741 mmHg 79%
    19:00 +19°C° 1.4 mm 5 m/s 741 mmHg 86%
    20:00 +19°C° 0.6 mm 5 m/s 741 mmHg 86%
    21:00 +17°C° 0.6 mm 5 m/s 742 mmHg 87%
    22:00 +18°C° 0 mm 4 m/s 743 mmHg 84%
    23:00 +18°C° 0 mm 4 m/s 743 mmHg 84%

    Mâine, 21 Ianuarie, Marţi

    Timp Temperatura Precipitaţii Vânt Presiune Umiditate
    00:00 +18°C° 0 mm 4 m/s 743 mmHg 84%
    01:00 +17°C° 0 mm 4 m/s 743 mmHg 85%
    02:00 +17°C° 0 mm 4 m/s 743 mmHg 85%
    03:00 +15°C° 0 mm 4 m/s 743 mmHg 85%
    04:00 +15°C° 0 mm 4 m/s 743 mmHg 86%
    05:00 +15°C° 0 mm 4 m/s 743 mmHg 84%
    06:00 +15°C° 0 mm 4 m/s 744 mmHg 82%
    07:00 +15°C° 0 mm 4 m/s 745 mmHg 80%
    08:00 +18°C° 0 mm 4 m/s 745 mmHg 74%
    09:00 +19°C° 0 mm 4 m/s 745 mmHg 67%
    10:00 +21°C° 0 mm 3 m/s 745 mmHg 61%
    11:00 +22°C° 0 mm 3 m/s 745 mmHg 56%
    12:00 +25°C° 0 mm 3 m/s 744 mmHg 51%
    13:00 +26°C° 0 mm 3 m/s 744 mmHg 46%
    14:00 +27°C° 0 mm 2 m/s 743 mmHg 43%
    15:00 +27°C° 0 mm 2 m/s 743 mmHg 41%
    16:00 +28°C° 0 mm 2 m/s 742 mmHg 38%
    17:00 +27°C° 0 mm 2 m/s 743 mmHg 40%
    18:00 +27°C° 0 mm 1 m/s 743 mmHg 43%
    19:00 +26°C° 0 mm 1 m/s 743 mmHg 46%
    20:00 +25°C° 0 mm 1 m/s 743 mmHg 48%
    21:00 +24°C° 0 mm 1 m/s 743 mmHg 50%
    22:00 +21°C° 0 mm 2 m/s 743 mmHg 53%
    23:00 +21°C° 0 mm 2 m/s 743 mmHg 56%

    Poimâine, 22 Ianuarie, Miercuri

    Timp Temperatura Precipitaţii Vânt Presiune Umiditate
    00:00 +20°C° 0 mm 2 m/s 743 mmHg 58%
    01:00 +20°C° 0 mm 3 m/s 743 mmHg 61%
    02:00 +19°C° 0 mm 3 m/s 742 mmHg 62%
    03:00 +19°C° 0 mm 3 m/s 742 mmHg 63%
    04:00 +19°C° 0 mm 3 m/s 742 mmHg 64%
    05:00 +20°C° 0 mm 4 m/s 742 mmHg 62%
    06:00 +20°C° 0 mm 4 m/s 742 mmHg 59%
    07:00 +21°C° 0 mm 5 m/s 743 mmHg 56%
    08:00 +25°C° 0 mm 5 m/s 742 mmHg 48%
    09:00 +27°C° 0 mm 6 m/s 742 mmHg 39%
    10:00 +30°C° 0 mm 7 m/s 741 mmHg 30%
    11:00 +33°C° 0 mm 8 m/s 741 mmHg 27%
    12:00 +34°C° 0 mm 8 m/s 740 mmHg 24%
    13:00 +37°C° 0 mm 9 m/s 739 mmHg 21%
    14:00 +35°C° 0 mm 8 m/s 738 mmHg 22%
    15:00 +35°C° 0 mm 7 m/s 737 mmHg 22%
    16:00 +35°C° 0 mm 6 m/s 736 mmHg 23%
    17:00 +34°C° 0 mm 6 m/s 735 mmHg 24%
    18:00 +34°C° 0 mm 6 m/s 735 mmHg 24%
    19:00 +33°C° 0 mm 6 m/s 735 mmHg 25%
    20:00 +32°C° 0 mm 6 m/s 735 mmHg 30%
    21:00 +29°C° 0 mm 6 m/s 736 mmHg 35%
    22:00 +28°C° 0 mm 6 m/s 736 mmHg 40%
    23:00 +26°C° 0.1 mm 6 m/s 736 mmHg 48%

    23 Ianuarie, Joi

    Timp Temperatura Precipitaţii Vânt Presiune Umiditate
    00:00 +23°C° 0.1 mm 6 m/s 736 mmHg 56%
    01:00 +21°C° 0.1 mm 6 m/s 736 mmHg 64%
    02:00 +20°C° 0.1 mm 5 m/s 736 mmHg 65%
    03:00 +20°C° 0.1 mm 4 m/s 736 mmHg 65%
    04:00 +19°C° 0.1 mm 3 m/s 736 mmHg 65%
    05:00 +19°C° 0 mm 3 m/s 736 mmHg 64%
    06:00 +19°C° 0 mm 3 m/s 737 mmHg 62%
    07:00 +18°C° 0 mm 3 m/s 737 mmHg 60%
    08:00 +20°C° 0 mm 5 m/s 738 mmHg 54%
    09:00 +21°C° 0 mm 6 m/s 738 mmHg 48%
    10:00 +23°C° 0 mm 8 m/s 739 mmHg 42%
    11:00 +23°C° 0 mm 9 m/s 739 mmHg 41%
    12:00 +23°C° 0 mm 9 m/s 739 mmHg 39%
    13:00 +23°C° 0 mm 10 m/s 739 mmHg 37%
    14:00 +23°C° 0 mm 9 m/s 739 mmHg 37%
    15:00 +23°C° 0 mm 8 m/s 739 mmHg 38%
    16:00 +22°C° 0 mm 7 m/s 740 mmHg 38%
    17:00 +21°C° 0 mm 6 m/s 740 mmHg 38%
    18:00 +21°C° 0 mm 5 m/s 741 mmHg 38%
    19:00 +20°C° 0 mm 5 m/s 741 mmHg 39%
    20:00 +19°C° 0 mm 4 m/s 742 mmHg 40%
    21:00 +18°C° 0 mm 4 m/s 743 mmHg 41%
    22:00 +17°C° 0 mm 3 m/s 743 mmHg 41%
    23:00 +16°C° 0 mm 3 m/s 743 mmHg 43%

    24 Ianuarie, Vineri

    Timp Temperatura Precipitaţii Vânt Presiune Umiditate
    00:00 +14°C° 0 mm 3 m/s 744 mmHg 44%
    01:00 +14°C° 0 mm 3 m/s 744 mmHg 45%
    02:00 +13°C° 0 mm 3 m/s 744 mmHg 48%
    03:00 +13°C° 0 mm 2 m/s 744 mmHg 51%
    04:00 +13°C° 0 mm 2 m/s 744 mmHg 54%
    05:00 +13°C° 0 mm 2 m/s 745 mmHg 53%
    06:00 +14°C° 0 mm 2 m/s 746 mmHg 53%
    07:00 +14°C° 0 mm 2 m/s 746 mmHg 52%
    08:00 +16°C° 0 mm 2 m/s 746 mmHg 48%
    09:00 +18°C° 0 mm 3 m/s 747 mmHg 44%
    10:00 +19°C° 0 mm 3 m/s 747 mmHg 40%
    11:00 +21°C° 0 mm 3 m/s 747 mmHg 38%
    12:00 +22°C° 0 mm 4 m/s 746 mmHg 35%
    13:00 +25°C° 0 mm 4 m/s 746 mmHg 32%
    14:00 +26°C° 0 mm 4 m/s 746 mmHg 31%
    15:00 +27°C° 0 mm 4 m/s 745 mmHg 30%
    16:00 +27°C° 0 mm 4 m/s 745 mmHg 28%
    17:00 +26°C° 0 mm 3 m/s 745 mmHg 31%
    18:00 +25°C° 0 mm 3 m/s 745 mmHg 34%
    19:00 +24°C° 0 mm 2 m/s 745 mmHg 38%
    20:00 +23°C° 0 mm 2 m/s 746 mmHg 39%
    21:00 +22°C° 0 mm 1 m/s 746 mmHg 41%
    22:00 +21°C° 0 mm 1 m/s 747 mmHg 43%
    23:00 +20°C° 0 mm 1 m/s 746 mmHg 47%

    25 Ianuarie, Sâmbătă

    Timp Temperatura Precipitaţii Vânt Presiune Umiditate
    00:00 +19°C° 0 mm 1 m/s 746 mmHg 50%
    01:00 +19°C° 0 mm 1 m/s 746 mmHg 53%
    02:00 +18°C° 0 mm 1 m/s 746 mmHg 55%
    03:00 +18°C° 0 mm 1 m/s 746 mmHg 58%
    04:00 +15°C° 0 mm 0 m/s 746 mmHg 60%
    05:00 +18°C° 0 mm 1 m/s 747 mmHg 59%
    06:00 +18°C° 0 mm 1 m/s 747 mmHg 57%
    07:00 +19°C° 0 mm 1 m/s 747 mmHg 56%
    08:00 +21°C° 0 mm 1 m/s 747 mmHg 51%
    09:00 +23°C° 0 mm 1 m/s 747 mmHg 46%
    10:00 +25°C° 0 mm 1 m/s 747 mmHg 41%
    11:00 +27°C° 0 mm 2 m/s 747 mmHg 37%
    12:00 +28°C° 0 mm 3 m/s 747 mmHg 34%
    13:00 +29°C° 0 mm 3 m/s 746 mmHg 30%
    14:00 +30°C° 0 mm 3 m/s 746 mmHg 28%
    15:00 +30°C° 0 mm 3 m/s 745 mmHg 27%
    16:00 +31°C° 0 mm 3 m/s 745 mmHg 25%
    17:00 +30°C° 0 mm 2 m/s 745 mmHg 28%
    18:00 +29°C° 0 mm 2 m/s 746 mmHg 31%
    19:00 +28°C° 0 mm 2 m/s 746 mmHg 35%
    20:00 +26°C° 0 mm 2 m/s 746 mmHg 39%
    21:00 +25°C° 0 mm 2 m/s 746 mmHg 44%
    22:00 +23°C° 0 mm 2 m/s 747 mmHg 48%
    23:00 +21°C° 0 mm 2 m/s 747 mmHg 52%
    Arată mai mult